• In Czech Republic
  • List of Countries
  • For 7 days
  • Water Temperature
  • Satellite Maps
  • Weather Map
  • Weather Widgets
  • user-avatar
    Login

    Hourly Weather Shary

    Today, 23 September, Sunday

    Time Temperature Precipitation Wind Pressure Humidity
    00:00 +16°C° 0 mm 3 mps 754 mmHg 88%
    01:00 +16°C° 0 mm 3 mps 754 mmHg 88%
    02:00 +16°C° 0 mm 3 mps 754 mmHg 89%
    03:00 +14°C° 0 mm 3 mps 754 mmHg 90%
    04:00 +14°C° 0 mm 3 mps 753 mmHg 89%
    05:00 +14°C° 0 mm 3 mps 753 mmHg 89%
    06:00 +13°C° 0 mm 3 mps 753 mmHg 89%
    07:00 +15°C° 0 mm 4 mps 753 mmHg 81%
    08:00 +18°C° 0 mm 4 mps 752 mmHg 74%
    09:00 +19°C° 0 mm 5 mps 752 mmHg 67%
    10:00 +21°C° 0 mm 5 mps 751 mmHg 61%
    11:00 +22°C° 0 mm 6 mps 751 mmHg 56%
    12:00 +23°C° 0 mm 6 mps 750 mmHg 51%
    13:00 +23°C° 0 mm 7 mps 750 mmHg 50%
    14:00 +23°C° 0 mm 7 mps 749 mmHg 50%
    15:00 +23°C° 0 mm 7 mps 749 mmHg 50%
    16:00 +22°C° 0 mm 6 mps 748 mmHg 54%
    17:00 +21°C° 0 mm 5 mps 748 mmHg 59%
    18:00 +19°C° 0 mm 4 mps 748 mmHg 63%
    19:00 +19°C° 0 mm 4 mps 748 mmHg 66%
    20:00 +18°C° 0 mm 4 mps 748 mmHg 68%
    21:00 +17°C° 0 mm 4 mps 748 mmHg 71%
    22:00 +15°C° 0.2 mm 4 mps 748 mmHg 76%
    23:00 +13°C° 0.2 mm 3 mps 748 mmHg 80%

    Tomorrow, 24 September, Monday

    Time Temperature Precipitation Wind Pressure Humidity
    00:00 +12°C° 0.2 mm 3 mps 748 mmHg 85%
    01:00 +11°C° 1.6 mm 3 mps 748 mmHg 87%
    02:00 +10°C° 1.6 mm 4 mps 748 mmHg 88%
    03:00 +8°C° 1.6 mm 4 mps 748 mmHg 90%
    04:00 +8°C° 1.6 mm 4 mps 748 mmHg 91%
    05:00 +8°C° 1.6 mm 3 mps 748 mmHg 92%
    06:00 +8°C° 1.6 mm 2 mps 748 mmHg 93%
    07:00 +9°C° 0.3 mm 2 mps 749 mmHg 92%
    08:00 +10°C° 0.3 mm 2 mps 749 mmHg 91%
    09:00 +10°C° 0.3 mm 2 mps 749 mmHg 90%
    10:00 +12°C° 0 mm 2 mps 750 mmHg 84%
    11:00 +13°C° 0 mm 3 mps 750 mmHg 77%
    12:00 +14°C° 0 mm 3 mps 750 mmHg 71%
    13:00 +16°C° 0 mm 3 mps 750 mmHg 66%
    14:00 +16°C° 0 mm 3 mps 750 mmHg 61%
    15:00 +17°C° 0 mm 3 mps 750 mmHg 56%
    16:00 +15°C° 0 mm 2 mps 750 mmHg 62%
    17:00 +14°C° 0 mm 2 mps 750 mmHg 68%
    18:00 +13°C° 0 mm 2 mps 750 mmHg 74%
    19:00 +12°C° 0 mm 2 mps 750 mmHg 75%
    20:00 +12°C° 0 mm 2 mps 750 mmHg 76%
    21:00 +12°C° 0 mm 2 mps 750 mmHg 77%
    22:00 +11°C° 0 mm 3 mps 749 mmHg 76%
    23:00 +11°C° 0 mm 3 mps 749 mmHg 74%

    Day after tomorrow, 25 September, Tuesday

    Time Temperature Precipitation Wind Pressure Humidity
    00:00 +12°C° 0 mm 4 mps 748 mmHg 73%
    01:00 +11°C° 0.3 mm 4 mps 747 mmHg 76%
    02:00 +10°C° 0.3 mm 5 mps 747 mmHg 78%
    03:00 +10°C° 0.3 mm 5 mps 746 mmHg 81%
    04:00 +10°C° 1.3 mm 6 mps 745 mmHg 83%
    05:00 +9°C° 1.3 mm 6 mps 744 mmHg 84%
    06:00 +9°C° 1.3 mm 7 mps 744 mmHg 86%
    07:00 +9°C° 2.6 mm 7 mps 743 mmHg 87%
    08:00 +9°C° 2.6 mm 7 mps 743 mmHg 87%
    09:00 +9°C° 2.6 mm 7 mps 742 mmHg 88%
    10:00 +10°C° 0.3 mm 6 mps 742 mmHg 87%
    11:00 +10°C° 0.3 mm 6 mps 742 mmHg 86%
    12:00 +10°C° 0.3 mm 6 mps 742 mmHg 86%
    13:00 +10°C° 0.1 mm 6 mps 741 mmHg 83%
    14:00 +10°C° 0.1 mm 6 mps 741 mmHg 80%
    15:00 +10°C° 0.1 mm 5 mps 741 mmHg 77%
    16:00 +10°C° 0 mm 5 mps 741 mmHg 77%
    17:00 +9°C° 0 mm 5 mps 741 mmHg 77%
    18:00 +9°C° 0 mm 5 mps 741 mmHg 78%
    19:00 +8°C° 0 mm 5 mps 741 mmHg 78%
    20:00 +8°C° 0 mm 6 mps 741 mmHg 78%
    21:00 +8°C° 0 mm 6 mps 741 mmHg 79%
    22:00 +8°C° 0 mm 6 mps 741 mmHg 78%
    23:00 +8°C° 0 mm 7 mps 741 mmHg 76%

    26 September, Wednesday

    Time Temperature Precipitation Wind Pressure Humidity
    00:00 +6°C° 0 mm 7 mps 741 mmHg 75%
    01:00 +6°C° 0.1 mm 7 mps 742 mmHg 77%
    02:00 +6°C° 0.1 mm 7 mps 742 mmHg 78%
    03:00 +8°C° 0.1 mm 7 mps 742 mmHg 79%
    04:00 +6°C° 0.2 mm 7 mps 743 mmHg 81%
    05:00 +7°C° 0.2 mm 6 mps 744 mmHg 82%
    06:00 +7°C° 0.2 mm 6 mps 745 mmHg 84%
    07:00 +7°C° 0.1 mm 6 mps 746 mmHg 83%
    08:00 +7°C° 0.1 mm 6 mps 747 mmHg 82%
    09:00 +7°C° 0.1 mm 6 mps 748 mmHg 81%
    10:00 +7°C° 0.1 mm 5 mps 749 mmHg 79%
    11:00 +7°C° 0.1 mm 5 mps 749 mmHg 78%
    12:00 +7°C° 0.1 mm 5 mps 750 mmHg 76%
    13:00 +7°C° 0 mm 5 mps 751 mmHg 74%
    14:00 +7°C° 0 mm 5 mps 752 mmHg 71%
    15:00 +7°C° 0 mm 4 mps 752 mmHg 69%
    16:00 +6°C° 0 mm 4 mps 752 mmHg 69%
    17:00 +7°C° 0 mm 3 mps 753 mmHg 68%
    18:00 +5°C° 0 mm 3 mps 753 mmHg 68%
    19:00 +5°C° 0 mm 3 mps 753 mmHg 70%
    20:00 +4°C° 0 mm 3 mps 753 mmHg 72%
    21:00 +3°C° 0 mm 3 mps 753 mmHg 74%
    22:00 +3°C° 0 mm 3 mps 753 mmHg 77%
    23:00 +3°C° 0 mm 3 mps 753 mmHg 79%

    27 September, Thursday

    Time Temperature Precipitation Wind Pressure Humidity
    00:00 +3°C° 0 mm 3 mps 752 mmHg 82%
    01:00 +2°C° 0 mm 3 mps 752 mmHg 84%
    02:00 +1°C° 0 mm 4 mps 751 mmHg 87%
    03:00 +1°C° 0 mm 4 mps 750 mmHg 89%
    04:00 +1°C° 0 mm 4 mps 750 mmHg 87%
    05:00 +2°C° 0 mm 5 mps 749 mmHg 86%
    06:00 +2°C° 0 mm 6 mps 748 mmHg 85%
    07:00 +3°C° 0.3 mm 6 mps 747 mmHg 85%
    08:00 +4°C° 0.3 mm 7 mps 746 mmHg 84%
    09:00 +5°C° 0.3 mm 7 mps 745 mmHg 84%
    10:00 +5°C° 0.6 mm 7 mps 744 mmHg 84%
    11:00 +5°C° 0.6 mm 7 mps 744 mmHg 84%
    12:00 +5°C° 0.6 mm 7 mps 743 mmHg 85%
    13:00 +5°C° 0.9 mm 7 mps 743 mmHg 85%
    14:00 +5°C° 0.9 mm 6 mps 742 mmHg 86%
    15:00 +5°C° 0.9 mm 6 mps 742 mmHg 87%
    16:00 +7°C° 0.1 mm 5 mps 742 mmHg 87%
    17:00 +7°C° 0.1 mm 5 mps 742 mmHg 87%
    18:00 +7°C° 0.1 mm 4 mps 742 mmHg 87%
    19:00 +6°C° 0.1 mm 4 mps 742 mmHg 89%
    20:00 +6°C° 0.1 mm 4 mps 742 mmHg 90%
    21:00 +6°C° 0.1 mm 4 mps 742 mmHg 92%
    22:00 +7°C° 0.4 mm 3 mps 741 mmHg 93%
    23:00 +7°C° 0.4 mm 3 mps 741 mmHg 95%

    28 September, Friday

    Time Temperature Precipitation Wind Pressure Humidity
    00:00 +7°C° 0.4 mm 3 mps 740 mmHg 96%
    01:00 +7°C° 1 mm 2 mps 740 mmHg 96%
    02:00 +7°C° 1 mm 2 mps 740 mmHg 96%
    03:00 +7°C° 1 mm 2 mps 740 mmHg 97%
    04:00 +7°C° 0.1 mm 2 mps 740 mmHg 96%
    05:00 +5°C° 0.1 mm 3 mps 740 mmHg 96%
    06:00 +5°C° 0.1 mm 3 mps 740 mmHg 95%
    07:00 +6°C° 0.1 mm 4 mps 740 mmHg 92%
    08:00 +7°C° 0.1 mm 4 mps 740 mmHg 88%
    09:00 +7°C° 0.1 mm 5 mps 740 mmHg 84%
    10:00 +8°C° 0.1 mm 5 mps 741 mmHg 81%
    11:00 +8°C° 0.1 mm 5 mps 741 mmHg 78%
    12:00 +8°C° 0.1 mm 6 mps 742 mmHg 74%
    13:00 +8°C° 0.1 mm 6 mps 742 mmHg 71%
    14:00 +9°C° 0.1 mm 6 mps 742 mmHg 68%
    15:00 +9°C° 0.1 mm 6 mps 743 mmHg 65%
    16:00 +8°C° 0 mm 5 mps 743 mmHg 69%
    17:00 +7°C° 0 mm 4 mps 743 mmHg 73%
    18:00 +7°C° 0 mm 3 mps 744 mmHg 77%
    19:00 +5°C° 0 mm 3 mps 744 mmHg 79%
    20:00 +5°C° 0 mm 3 mps 744 mmHg 82%
    21:00 +4°C° 0 mm 3 mps 744 mmHg 84%
    22:00 +4°C° 0 mm 3 mps 745 mmHg 85%
    23:00 +4°C° 0 mm 3 mps 745 mmHg 86%
    Show more